#timestamp,LO_Frequency,Hit,StdDev 
1578267735.8,286047013.7,P
1578267755.6,286047013.8,P
1578267775.4,286047013.2,P
1578267795.3,286047013.8,Y
1578267815.1,286046998.5,P
1578267835.9,286046998.2,N
1578267855.7,286046998.7,N
1578267875.5,286046998.2,N
1578267895.4,286046998.1,N
1578267915.2,286047003.9,N
1578267935.0,286047005.5,N
1578267935.9,286047005.5,N
1578267955.8,286047004.9,N
1578267975.6,286047004.9,N
1578267995.5,286047006.8,N
1578268015.3,286047008.3,N
1578268035.1,286047007.7,N
1578268055.9,286047009.0,N
1578268075.7,286047011.9,N
1578268095.5,286047007.5,N
1578268115.4,286047005.3,N
1578268135.2,286047004.8,N
1578268155.0,286047005.9,N
1578268156.0,286047005.9,N
1578268175.8,286047003.5,N
1578268195.6,286047003.6,N
1578268215.5,286047001.5,N
1578268235.3,286047002.7,N
1578268255.1,286047002.6,N
1578268275.9,286047005.8,N
1578268295.7,286047005.2,N
1578268315.5,286047005.7,N
1578268335.4,286047003.9,N
1578268355.2,286047004.4,N
1578268375.1,286047001.3,N
1578268376.0,286047001.3,N
1578268395.8,286047003.9,N
1578268415.6,286047002.0,N
1578268435.5,286047001.7,N
1578268455.3,286047001.6,N
1578268475.1,286047000.2,N
1578268495.9,286047000.4,N
1578268515.7,286047000.0,N
1578268535.6,286047000.0,N
1578268555.4,286047000.7,N
1578268575.2,286047001.2,N
1578268595.1,286047004.1,N
1578268596.0,286047004.1,N
1578268615.8,286047004.1,N
1578268635.6,286047004.1,N
1578268655.5,286047001.3,N
1578268675.3,286047001.9,N
1578268695.2,286047000.0,N
1578268715.9,286046999.7,N
1578268735.7,286047002.5,N
1578268755.6,286047002.1,N
1578268775.4,286047002.5,N
1578268795.2,286047002.8,N
